| time (UTC) | temp C | wind direction | speed KPH | gust KPH | rain 1hr cm | rain 24hr cm | rain mn cm | humidity % | barometer mb |
| 20260508045907 | 10 | 81 | 8.0 | 12.9 | 0.00 | 0.00 | 0.00 | 90 | 1018.3 |
| 20260508045503 | 10 | 82 | 6.4 | 12.9 | 0.00 | 0.00 | 0.00 | 90 | 1018.3 |
| 20260508045023 | 10 | 42 | 6.4 | 12.9 | 0.00 | 0.00 | 0.00 | 90 | 1018.2 |
| 20260508043854 | 10 | 74 | 8.0 | 12.9 | 0.00 | 0.00 | 0.00 | 90 | 1018.2 |
| 20260508043349 | 10 | 33 | 8.0 | 12.9 | 0.00 | 0.00 | 0.00 | 90 | 1018.2 |
| 20260508042848 | 10 | 65 | 8.0 | 12.9 | 0.00 | 0.00 | 0.00 | 90 | 1018.2 |
| 20260508042349 | 10 | 60 | 8.0 | 14.5 | 0.00 | 0.00 | 0.00 | 90 | 1018.2 |
| 20260508041847 | 10 | 52 | 9.7 | 14.5 | 0.00 | 0.00 | 0.00 | 89 | 1018.2 |
| 20260508041349 | 10 | 71 | 8.0 | 14.5 | 0.00 | 0.00 | 0.00 | 89 | 1018.2 |
| 20260508040849 | 10 | 73 | 8.0 | 12.9 | 0.00 | 0.00 | 0.00 | 89 | 1018.2 |
| 20260508040350 | 10 | 44 | 9.7 | 12.9 | 0.00 | 0.00 | 0.00 | 89 | 1018.2 |
| 20260508035901 | 10 | 75 | 8.0 | 12.9 | 0.00 | 0.00 | 0.00 | 89 | 1018.1 |
| 20260508035355 | 10 | 65 | 8.0 | 12.9 | 0.00 | 0.00 | 0.00 | 89 | 1018.2 |
| 20260508034850 | 10 | 76 | 8.0 | 12.9 | 0.00 | 0.00 | 0.00 | 89 | 1018.1 |
| 20260508034349 | 10 | 54 | 8.0 | 12.9 | 0.00 | 0.00 | 0.00 | 88 | 1018.0 |
| 20260508033851 | 10 | 81 | 8.0 | 12.9 | 0.00 | 0.00 | 0.00 | 88 | 1018.0 |
| 20260508033348 | 10 | 75 | 9.7 | 12.9 | 0.00 | 0.00 | 0.00 | 88 | 1018.0 |
| 20260508032845 | 10 | 74 | 9.7 | 12.9 | 0.00 | 0.00 | 0.00 | 88 | 1018.0 |
| 20260508032349 | 10 | 67 | 9.7 | 12.9 | 0.00 | 0.00 | 0.00 | 88 | 1018.0 |
| 20260508031854 | 10 | 67 | 9.7 | 12.9 | 0.00 | 0.00 | 0.00 | 88 | 1018.0 |
| 20260508031343 | 10 | 62 | 9.7 | 12.9 | 0.00 | 0.00 | 0.00 | 88 | 1018.0 |
| 20260508030843 | 10 | 68 | 11.3 | 14.5 | 0.00 | 0.00 | 0.00 | 87 | 1018.0 |
| 20260508030344 | 10 | 77 | 9.7 | 14.5 | 0.00 | 0.00 | 0.00 | 87 | 1017.9 |
| 20260508025909 | 10 | 54 | 8.0 | 14.5 | 0.00 | 0.00 | 0.00 | 87 | 1017.9 |
| 20260508024843 | 11 | 62 | 6.4 | 11.3 | 0.00 | 0.00 | 0.00 | 87 | 1017.9 |
| 20260508024341 | 11 | 43 | 6.4 | 11.3 | 0.00 | 0.00 | 0.00 | 87 | 1017.9 |
| 20260508023842 | 11 | 68 | 4.8 | 11.3 | 0.00 | 0.00 | 0.00 | 87 | 1017.9 |
| 20260508023341 | 11 | 63 | 4.8 | 9.7 | 0.00 | 0.00 | 0.00 | 87 | 1017.9 |
| 20260508022841 | 11 | 62 | 3.2 | 9.7 | 0.00 | 0.00 | 0.00 | 87 | 1018.0 |
| 20260508022342 | 11 | 47 | 3.2 | 6.4 | 0.00 | 0.00 | 0.00 | 86 | 1017.9 |
| 20260508021851 | 11 | 44 | 4.8 | 6.4 | 0.00 | 0.00 | 0.00 | 86 | 1017.9 |
| 20260508021341 | 11 | 59 | 4.8 | 6.4 | 0.00 | 0.00 | 0.00 | 86 | 1017.9 |
| 20260508020909 | 11 | 53 | 4.8 | 6.4 | 0.00 | 0.00 | 0.00 | 86 | 1017.8 |
| 20260508015910 | 11 | 54 | 4.8 | 9.7 | 0.00 | 0.00 | 0.00 | 86 | 1017.9 |
| 20260508014839 | 11 | 68 | 4.8 | 9.7 | 0.00 | 0.00 | 0.00 | 86 | 1017.9 |
| 20260508014342 | 11 | 46 | 6.4 | 9.7 | 0.00 | 0.00 | 0.00 | 85 | 1017.8 |
| 20260508013841 | 11 | 60 | 4.8 | 9.7 | 0.00 | 0.00 | 0.00 | 85 | 1017.8 |
| 20260508013339 | 11 | 60 | 6.4 | 11.3 | 0.00 | 0.00 | 0.00 | 85 | 1017.8 |
| 20260508012842 | 11 | 50 | 6.4 | 11.3 | 0.00 | 0.00 | 0.00 | 85 | 1017.9 |
| 20260508012341 | 11 | 71 | 6.4 | 11.3 | 0.00 | 0.00 | 0.00 | 85 | 1017.8 |
| 20260508011921 | 11 | 70 | 6.4 | 11.3 | 0.00 | 0.00 | 0.00 | 85 | 1017.9 |
| 20260508010840 | 11 | 50 | 4.8 | 9.7 | 0.00 | 0.00 | 0.00 | 85 | 1017.8 |
| 20260508010343 | 11 | 76 | 6.4 | 11.3 | 0.00 | 0.00 | 0.00 | 84 | 1017.9 |
| 20260508005839 | 11 | 57 | 6.4 | 11.3 | 0.00 | 0.00 | 0.00 | 84 | 1017.9 |
| 20260508005339 | 11 | 69 | 6.4 | 11.3 | 0.00 | 0.00 | 0.00 | 84 | 1017.8 |
| 20260508004840 | 11 | 61 | 6.4 | 12.9 | 0.00 | 0.00 | 0.00 | 84 | 1018.0 |
| 20260508004338 | 11 | 66 | 6.4 | 12.9 | 0.00 | 0.00 | 0.00 | 84 | 1018.0 |
| 20260508003841 | 11 | 62 | 4.8 | 9.7 | 0.00 | 0.00 | 0.00 | 84 | 1017.9 |
| 20260508002847 | 11 | 62 | 4.8 | 9.7 | 0.00 | 0.00 | 0.00 | 83 | 1018.0 |
| 20260508002438 | 11 | 67 | 4.8 | 9.7 | 0.00 | 0.00 | 0.00 | 83 | 1018.0 |
| 20260508001338 | 11 | 64 | 4.8 | 9.7 | 0.00 | 0.00 | 0.00 | 82 | 1018.0 |
| 20260508000841 | 11 | 62 | 4.8 | 9.7 | 0.00 | 0.00 | 0.00 | 81 | 1017.9 |
| 20260508000338 | 12 | 62 | 4.8 | 9.7 | 0.00 | 0.00 | 0.00 | 81 | 1017.9 |
| 20260507235838 | 12 | 67 | 4.8 | 9.7 | 0.00 | 0.00 | 0.00 | 81 | 1018.0 |
| 20260507235338 | 12 | 66 | 4.8 | 9.7 | 0.00 | 0.00 | 0.00 | 80 | 1018.0 |
| 20260507234836 | 12 | 56 | 4.8 | 9.7 | 0.00 | 0.00 | 0.00 | 80 | 1018.0 |
| 20260507234411 | 12 | 59 | 4.8 | 9.7 | 0.00 | 0.00 | 0.00 | 80 | 1018.1 |
| 20260507233337 | 12 | 50 | 4.8 | 9.7 | 0.00 | 0.00 | 0.00 | 79 | 1018.2 |
| 20260507232838 | 12 | 50 | 4.8 | 6.4 | 0.00 | 0.00 | 0.00 | 78 | 1018.2 |
| 20260507232337 | 12 | 63 | 3.2 | 6.4 | 0.00 | 0.00 | 0.00 | 78 | 1018.1 |
| 20260507231911 | 12 | 63 | 3.2 | 4.8 | 0.00 | 0.00 | 0.00 | 77 | 1018.1 |
| 20260507230836 | 12 | 63 | 3.2 | 6.4 | 0.00 | 0.00 | 0.00 | 76 | 1018.1 |
| 20260507230344 | 12 | 73 | 4.8 | 6.4 | 0.00 | 0.00 | 0.00 | 76 | 1018.2 |
| 20260507225837 | 12 | 68 | 3.2 | 6.4 | 0.00 | 0.00 | 0.00 | 75 | 1018.2 |
| 20260507225332 | 12 | 58 | 4.8 | 6.4 | 0.00 | 0.00 | 0.00 | 75 | 1018.2 |
| 20260507224915 | 12 | 50 | 4.8 | 9.7 | 0.00 | 0.00 | 0.00 | 75 | 1018.2 |
| 20260507223831 | 12 | 62 | 6.4 | 11.3 | 0.00 | 0.00 | 0.00 | 74 | 1018.2 |
| 20260507223332 | 12 | 57 | 4.8 | 12.9 | 0.00 | 0.00 | 0.00 | 75 | 1018.2 |
| 20260507222832 | 12 | 357 | 4.8 | 12.9 | 0.00 | 0.00 | 0.00 | 75 | 1018.2 |
| 20260507222333 | 12 | 38 | 3.2 | 12.9 | 0.00 | 0.00 | 0.00 | 75 | 1018.2 |
| 20260507221909 | 12 | 19 | 3.2 | 8.0 | 0.00 | 0.00 | 0.00 | 75 | 1018.2 |
| 20260507220830 | 12 | 56 | 3.2 | 8.0 | 0.00 | 0.00 | 0.00 | 75 | 1018.2 |
| 20260507220331 | 12 | 33 | 3.2 | 8.0 | 0.00 | 0.00 | 0.00 | 75 | 1018.2 |
| 20260507215834 | 13 | 46 | 3.2 | 6.4 | 0.00 | 0.00 | 0.00 | 75 | 1018.0 |
| 20260507215330 | 13 | 36 | 3.2 | 9.7 | 0.00 | 0.00 | 0.00 | 75 | 1018.1 |
| 20260507214832 | 13 | 72 | 3.2 | 9.7 | 0.00 | 0.00 | 0.00 | 75 | 1018.0 |
| 20260507214332 | 13 | 39 | 3.2 | 8.0 | 0.00 | 0.00 | 0.00 | 74 | 1018.1 |
| 20260507213923 | 13 | 355 | 4.8 | 11.3 | 0.00 | 0.00 | 0.00 | 74 | 1017.9 |
| 20260507212332 | 13 | 54 | 3.2 | 9.7 | 0.00 | 0.00 | 0.00 | 73 | 1018.0 |
| 20260507211831 | 13 | 48 | 4.8 | 9.7 | 0.00 | 0.00 | 0.00 | 73 | 1018.0 |
| 20260507211332 | 13 | 48 | 4.8 | 9.7 | 0.00 | 0.00 | 0.00 | 73 | 1018.0 |
| 20260507210853 | 13 | 62 | 4.8 | 9.7 | 0.00 | 0.00 | 0.00 | 73 | 1018.1 |
| 20260507205826 | 13 | 68 | 3.2 | 9.7 | 0.00 | 0.00 | 0.00 | 73 | 1018.0 |
| 20260507205322 | 13 | 62 | 3.2 | 9.7 | 0.00 | 0.00 | 0.00 | 73 | 1018.0 |
| 20260507204823 | 13 | 44 | 3.2 | 9.7 | 0.00 | 0.00 | 0.00 | 73 | 1017.9 |
| 20260507204330 | 13 | 44 | 4.8 | 6.4 | 0.00 | 0.00 | 0.00 | 73 | 1017.8 |
| 20260507203822 | 13 | 60 | 4.8 | 6.4 | 0.00 | 0.00 | 0.00 | 73 | 1017.8 |
| 20260507203352 | 13 | 68 | 4.8 | 9.7 | 0.00 | 0.00 | 0.00 | 73 | 1017.7 |
| 20260507202322 | 13 | 67 | 4.8 | 9.7 | 0.00 | 0.00 | 0.00 | 72 | 1017.8 |
| 20260507201821 | 13 | 67 | 4.8 | 9.7 | 0.00 | 0.00 | 0.00 | 72 | 1017.7 |
| 20260507201323 | 13 | 72 | 4.8 | 11.3 | 0.00 | 0.00 | 0.00 | 72 | 1017.7 |
| 20260507200821 | 13 | 62 | 6.4 | 11.3 | 0.00 | 0.00 | 0.00 | 71 | 1017.6 |
| 20260507200320 | 13 | 64 | 4.8 | 11.3 | 0.00 | 0.00 | 0.00 | 71 | 1017.6 |
| 20260507195844 | 13 | 42 | 4.8 | 9.7 | 0.00 | 0.00 | 0.00 | 71 | 1017.6 |
| 20260507194821 | 13 | 75 | 4.8 | 11.3 | 0.00 | 0.00 | 0.00 | 71 | 1017.5 |
| 20260507194318 | 13 | 58 | 4.8 | 11.3 | 0.00 | 0.00 | 0.00 | 71 | 1017.5 |
| 20260507193815 | 13 | 58 | 6.4 | 11.3 | 0.00 | 0.00 | 0.00 | 70 | 1017.4 |
| 20260507193316 | 13 | 58 | 6.4 | 12.9 | 0.00 | 0.00 | 0.00 | 70 | 1017.3 |
| 20260507192815 | 13 | 74 | 6.4 | 12.9 | 0.00 | 0.00 | 0.00 | 70 | 1017.3 |
| 20260507192345 | 13 | 72 | 6.4 | 14.5 | 0.00 | 0.00 | 0.00 | 70 | 1017.2 |
| 20260507191313 | 13 | 62 | 6.4 | 14.5 | 0.00 | 0.00 | 0.00 | 70 | 1017.2 |
| 20260507190818 | 13 | 53 | 6.4 | 16.1 | 0.00 | 0.00 | 0.00 | 69 | 1017.2 |
| 20260507190317 | 13 | 75 | 6.4 | 16.1 | 0.00 | 0.00 | 0.00 | 69 | 1017.2 |
| 20260507185816 | 13 | 75 | 6.4 | 11.3 | 0.00 | 0.00 | 0.00 | 70 | 1017.2 |
| 20260507185313 | 13 | 66 | 6.4 | 12.9 | 0.00 | 0.00 | 0.00 | 70 | 1017.2 |
| 20260507184843 | 13 | 60 | 4.8 | 12.9 | 0.00 | 0.00 | 0.00 | 70 | 1017.2 |
| 20260507183812 | 14 | 48 | 4.8 | 6.4 | 0.00 | 0.00 | 0.00 | 69 | 1017.2 |
| 20260507183313 | 14 | 62 | 3.2 | 4.8 | 0.00 | 0.00 | 0.00 | 69 | 1017.1 |
| 20260507182859 | 14 | 67 | 3.2 | 6.4 | 0.00 | 0.00 | 0.00 | 69 | 1017.1 |
| 20260507181808 | 14 | 75 | 3.2 | 9.7 | 0.00 | 0.00 | 0.00 | 68 | 1017.1 |
| 20260507181308 | 14 | 79 | 4.8 | 11.3 | 0.00 | 0.00 | 0.00 | 66 | 1017.0 |
| 20260507180807 | 14 | 70 | 4.8 | 11.3 | 0.00 | 0.00 | 0.00 | 67 | 1017.1 |
| 20260507180306 | 14 | 79 | 3.2 | 9.7 | 0.00 | 0.00 | 0.00 | 66 | 1017.1 |
| 20260507175810 | 14 | 78 | 3.2 | 6.4 | 0.00 | 0.00 | 0.00 | 66 | 1017.0 |
| 20260507175340 | 14 | 78 | 3.2 | 6.4 | 0.00 | 0.00 | 0.00 | 65 | 1016.9 |
| 20260507174305 | 14 | 76 | 3.2 | 4.8 | 0.00 | 0.00 | 0.00 | 65 | 1016.9 |
| 20260507173803 | 14 | 69 | 3.2 | 4.8 | 0.00 | 0.00 | 0.00 | 66 | 1017.0 |
| 20260507173306 | 14 | 67 | 3.2 | 6.4 | 0.00 | 0.00 | 0.00 | 66 | 1017.0 |
| 20260507172800 | 14 | 68 | 3.2 | 6.4 | 0.00 | 0.00 | 0.00 | 64 | 1016.9 |
| 20260507172301 | 15 | 44 | 1.6 | 3.2 | 0.00 | 0.00 | 0.00 | 66 | 1017.0 |
| 20260507171758 | 15 | 31 | 3.2 | 4.8 | 0.00 | 0.00 | 0.00 | 67 | 1017.0 |
| 20260507171257 | 15 | 35 | 3.2 | 6.4 | 0.00 | 0.00 | 0.00 | 64 | 1017.0 |
| 20260507170837 | 15 | 45 | 3.2 | 6.4 | 0.00 | 0.00 | 0.00 | 62 | 1017.0 |
| 20260507165819 | 15 | 39 | 4.8 | 8.0 | 0.00 | 0.00 | 0.00 | 63 | 1017.0 |
| 20260507164758 | 15 | 39 | 3.2 | 6.4 | 0.00 | 0.00 | 0.00 | 62 | 1016.9 |
| 20260507164257 | 15 | 41 | 4.8 | 6.4 | 0.00 | 0.00 | 0.00 | 62 | 1016.9 |
| 20260507163751 | 15 | 36 | 6.4 | 12.9 | 0.00 | 0.00 | 0.00 | 61 | 1016.9 |
| 20260507163250 | 15 | 31 | 6.4 | 12.9 | 0.00 | 0.00 | 0.00 | 62 | 1016.9 |
| 20260507162754 | 15 | 29 | 4.8 | 9.7 | 0.00 | 0.00 | 0.00 | 62 | 1016.9 |
| 20260507162252 | 15 | 65 | 4.8 | 9.7 | 0.00 | 0.00 | 0.00 | 60 | 1016.9 |
| 20260507161753 | 15 | 57 | 4.8 | 9.7 | 0.00 | 0.00 | 0.00 | 60 | 1016.9 |
| 20260507161253 | 15 | 79 | 3.2 | 9.7 | 0.00 | 0.00 | 0.00 | 60 | 1016.9 |
| 20260507160818 | 15 | 81 | 4.8 | 9.7 | 0.00 | 0.00 | 0.00 | 62 | 1016.9 |
| 20260507155753 | 15 | 23 | 6.4 | 11.3 | 0.00 | 0.00 | 0.00 | 61 | 1016.9 |
| 20260507155315 | 15 | 39 | 4.8 | 12.9 | 0.00 | 0.00 | 0.00 | 61 | 1016.8 |
| 20260507154249 | 15 | 114 | 1.6 | 4.8 | 0.00 | 0.00 | 0.00 | 60 | 1016.8 |
| 20260507153746 | 15 | 66 | 3.2 | 6.4 | 0.00 | 0.00 | 0.00 | 58 | 1016.9 |
| 20260507153246 | 15 | 30 | 3.2 | 6.4 | 0.00 | 0.00 | 0.00 | 57 | 1016.8 |
| 20260507152748 | 15 | 70 | 3.2 | 12.9 | 0.00 | 0.00 | 0.00 | 59 | 1016.7 |
| 20260507152244 | 15 | 138 | 4.8 | 12.9 | 0.00 | 0.00 | 0.00 | 58 | 1016.8 |
| 20260507151743 | 15 | 115 | 3.2 | 11.3 | 0.00 | 0.00 | 0.00 | 60 | 1016.7 |
| 20260507151322 | 15 | 78 | 3.2 | 6.4 | 0.00 | 0.00 | 0.00 | 59 | 1016.8 |
| 20260507150244 | 15 | 69 | 6.4 | 11.3 | 0.00 | 0.00 | 0.00 | 59 | 1016.8 |
| 20260507145743 | 15 | 63 | 8.0 | 16.1 | 0.00 | 0.00 | 0.00 | 58 | 1016.7 |
| 20260507145241 | 15 | 75 | 8.0 | 16.1 | 0.00 | 0.00 | 0.00 | 59 | 1016.8 |
| 20260507144809 | 15 | 72 | 8.0 | 12.9 | 0.00 | 0.00 | 0.00 | 60 | 1016.7 |
| 20260507143734 | 15 | 60 | 8.0 | 14.5 | 0.00 | 0.00 | 0.00 | 59 | 1016.8 |
| 20260507143308 | 15 | 78 | 8.0 | 14.5 | 0.00 | 0.00 | 0.00 | 60 | 1016.8 |
| 20260507142234 | 15 | 73 | 4.8 | 11.3 | 0.00 | 0.00 | 0.00 | 60 | 1016.8 |
| 20260507141732 | 15 | 48 | 6.4 | 12.9 | 0.00 | 0.00 | 0.00 | 59 | 1016.8 |
| 20260507141230 | 15 | 83 | 4.8 | 12.9 | 0.00 | 0.00 | 0.00 | 58 | 1016.8 |
| 20260507140758 | 16 | 39 | 4.8 | 16.1 | 0.00 | 0.00 | 0.00 | 56 | 1016.8 |
| 20260507135731 | 16 | 47 | 6.4 | 16.1 | 0.00 | 0.00 | 0.00 | 54 | 1016.9 |
| 20260507135339 | 16 | 32 | 6.4 | 16.1 | 0.00 | 0.00 | 0.00 | 51 | 1016.9 |
| 20260507133813 | 16 | 339 | 6.4 | 16.1 | 0.00 | 0.00 | 0.00 | 52 | 1017.0 |
| 20260507132753 | 16 | 260 | 6.4 | 16.1 | 0.00 | 0.00 | 0.00 | 47 | 1016.9 |
| 20260507131726 | 16 | 4 | 9.7 | 17.7 | 0.00 | 0.00 | 0.00 | 54 | 1016.9 |
| 20260507131221 | 16 | 12 | 6.4 | 16.1 | 0.00 | 0.00 | 0.00 | 53 | 1016.8 |
| 20260507130731 | 15 | 75 | 4.8 | 11.3 | 0.00 | 0.00 | 0.00 | 57 | 1016.8 |
| 20260507130252 | 15 | 73 | 4.8 | 12.9 | 0.00 | 0.00 | 0.00 | 59 | 1016.8 |
| 20260507125257 | 15 | 10 | 4.8 | 14.5 | 0.00 | 0.00 | 0.00 | 55 | 1016.9 |
| 20260507124225 | 15 | 15 | 8.0 | 17.7 | 0.00 | 0.00 | 0.00 | 55 | 1016.9 |
| 20260507123733 | 16 | 21 | 6.4 | 17.7 | 0.00 | 0.00 | 0.00 | 59 | 1016.9 |
| 20260507123228 | 15 | 29 | 6.4 | 14.5 | 0.00 | 0.00 | 0.00 | 54 | 1016.8 |
| 20260507122725 | 15 | 38 | 9.7 | 17.7 | 0.00 | 0.00 | 0.00 | 56 | 1016.9 |
| 20260507122223 | 15 | 15 | 9.7 | 20.9 | 0.00 | 0.00 | 0.00 | 57 | 1016.9 |
| 20260507121723 | 16 | 45 | 8.0 | 20.9 | 0.00 | 0.00 | 0.00 | 60 | 1016.9 |
| 20260507121219 | 16 | 325 | 6.4 | 17.7 | 0.00 | 0.00 | 0.00 | 62 | 1016.9 |
| 20260507120732 | 16 | 342 | 4.8 | 11.3 | 0.00 | 0.00 | 0.00 | 66 | 1016.9 |
| 20260507120221 | 15 | 67 | 4.8 | 12.9 | 0.00 | 0.00 | 0.00 | 58 | 1016.9 |
| 20260507115716 | 15 | 19 | 6.4 | 14.5 | 0.00 | 0.00 | 0.00 | 62 | 1017.0 |
| 20260507115218 | 15 | 82 | 6.4 | 14.5 | 0.00 | 0.00 | 0.00 | 60 | 1017.0 |
| 20260507114715 | 16 | 355 | 6.4 | 14.5 | 0.00 | 0.00 | 0.00 | 62 | 1017.0 |
| 20260507114217 | 15 | 52 | 6.4 | 14.5 | 0.00 | 0.00 | 0.00 | 62 | 1017.0 |
| 20260507113719 | 15 | 49 | 6.4 | 14.5 | 0.00 | 0.00 | 0.00 | 61 | 1017.1 |
| 20260507113250 | 16 | 58 | 9.7 | 17.7 | 0.00 | 0.00 | 0.00 | 62 | 1017.0 |
| 20260507112211 | 15 | 339 | 6.4 | 19.3 | 0.00 | 0.00 | 0.00 | 67 | 1017.0 |
| 20260507111712 | 15 | 29 | 6.4 | 17.7 | 0.00 | 0.00 | 0.00 | 67 | 1017.1 |
| 20260507111210 | 15 | 38 | 8.0 | 17.7 | 0.00 | 0.00 | 0.00 | 63 | 1017.1 |
| 20260507110714 | 16 | 32 | 6.4 | 16.1 | 0.00 | 0.00 | 0.00 | 68 | 1017.2 |
| 20260507110211 | 16 | 8 | 4.8 | 14.5 | 0.00 | 0.00 | 0.00 | 67 | 1017.2 |
| 20260507105712 | 15 | 97 | 4.8 | 17.7 | 0.00 | 0.00 | 0.00 | 66 | 1017.2 |
| 20260507105210 | 16 | 17 | 6.4 | 17.7 | 0.00 | 0.00 | 0.00 | 69 | 1017.3 |
| 20260507104710 | 15 | 66 | 9.7 | 20.9 | 0.00 | 0.00 | 0.00 | 67 | 1017.3 |
| 20260507104213 | 15 | 16 | 8.0 | 20.9 | 0.00 | 0.00 | 0.00 | 68 | 1017.3 |
| 20260507103714 | 15 | 312 | 4.8 | 19.3 | 0.00 | 0.00 | 0.00 | 69 | 1017.2 |
| 20260507103213 | 15 | 55 | 6.4 | 16.1 | 0.00 | 0.00 | 0.00 | 69 | 1017.3 |
| 20260507102710 | 15 | 54 | 6.4 | 16.1 | 0.00 | 0.00 | 0.00 | 67 | 1017.3 |
| 20260507102203 | 15 | 325 | 6.4 | 12.9 | 0.00 | 0.00 | 0.00 | 70 | 1017.2 |
| 20260507101704 | 15 | 12 | 6.4 | 16.1 | 0.00 | 0.00 | 0.00 | 71 | 1017.2 |
| 20260507101205 | 14 | 1 | 8.0 | 16.1 | 0.00 | 0.00 | 0.00 | 67 | 1017.2 |
| 20260507100741 | 14 | 27 | 6.4 | 16.1 | 0.00 | 0.00 | 0.00 | 68 | 1017.3 |
| 20260507095712 | 14 | 12 | 6.4 | 16.1 | 0.00 | 0.00 | 0.00 | 69 | 1017.2 |
| 20260507095224 | 14 | 44 | 8.0 | 17.7 | 0.00 | 0.00 | 0.00 | 71 | 1017.1 |
| 20260507094201 | 14 | 339 | 9.7 | 20.9 | 0.00 | 0.00 | 0.00 | 69 | 1017.2 |
| 20260507093703 | 14 | 31 | 6.4 | 16.1 | 0.00 | 0.00 | 0.00 | 73 | 1017.1 |
| 20260507093304 | 13 | 32 | 6.4 | 14.5 | 0.00 | 0.00 | 0.00 | 72 | 1017.1 |
| 20260507091703 | 13 | 37 | 8.0 | 16.1 | 0.00 | 0.00 | 0.00 | 73 | 1017.1 |
| 20260507091202 | 13 | 330 | 6.4 | 14.5 | 0.00 | 0.00 | 0.00 | 75 | 1017.1 |
| 20260507090702 | 13 | 330 | 4.8 | 14.5 | 0.00 | 0.00 | 0.00 | 75 | 1017.0 |
| 20260507090201 | 13 | 339 | 6.4 | 14.5 | 0.00 | 0.00 | 0.00 | 75 | 1017.1 |
| 20260507085704 | 13 | 339 | 8.0 | 16.1 | 0.00 | 0.00 | 0.00 | 75 | 1016.9 |
| 20260507085202 | 13 | 348 | 8.0 | 17.7 | 0.00 | 0.00 | 0.00 | 76 | 1017.0 |
| 20260507084701 | 13 | 316 | 8.0 | 20.9 | 0.00 | 0.00 | 0.00 | 75 | 1017.0 |
| 20260507084202 | 13 | 325 | 8.0 | 20.9 | 0.00 | 0.00 | 0.00 | 76 | 1017.0 |
| 20260507083802 | 12 | 26 | 6.4 | 16.1 | 0.00 | 0.00 | 0.00 | 76 | 1016.9 |
| 20260507082703 | 12 | 31 | 8.0 | 16.1 | 0.00 | 0.00 | 0.00 | 77 | 1017.0 |
| 20260507082230 | 12 | 335 | 9.7 | 16.1 | 0.00 | 0.00 | 0.00 | 76 | 1017.0 |
| 20260507081201 | 12 | 318 | 8.0 | 12.9 | 0.00 | 0.00 | 0.00 | 78 | 1017.0 |
| 20260507080752 | 12 | 12 | 8.0 | 16.1 | 0.00 | 0.00 | 0.00 | 79 | 1017.0 |
| 20260507075701 | 12 | 4 | 6.4 | 12.9 | 0.00 | 0.00 | 0.00 | 80 | 1016.9 |
| 20260507075200 | 12 | 19 | 6.4 | 12.9 | 0.00 | 0.00 | 0.00 | 81 | 1016.9 |
| 20260507074703 | 11 | 17 | 6.4 | 14.5 | 0.00 | 0.00 | 0.00 | 82 | 1016.9 |
| 20260507074202 | 11 | 287 | 6.4 | 14.5 | 0.00 | 0.00 | 0.00 | 83 | 1016.8 |
| 20260507073702 | 11 | 1 | 8.0 | 16.1 | 0.00 | 0.00 | 0.00 | 84 | 1016.8 |
| 20260507073201 | 11 | 18 | 6.4 | 16.1 | 0.00 | 0.00 | 0.00 | 85 | 1016.8 |
| 20260507072729 | 11 | 22 | 6.4 | 14.5 | 0.00 | 0.00 | 0.00 | 86 | 1016.8 |
| 20260507071702 | 11 | 343 | 6.4 | 14.5 | 0.00 | 0.00 | 0.00 | 87 | 1016.7 |
| 20260507071203 | 10 | 325 | 6.4 | 14.5 | 0.00 | 0.00 | 0.00 | 87 | 1016.7 |
| 20260507070822 | 10 | 33 | 4.8 | 11.3 | 0.00 | 0.00 | 0.00 | 88 | 1016.7 |
| 20260507070503 | 10 | 352 | 4.8 | 9.7 | 0.00 | 0.00 | 0.00 | 88 | 1016.7 |
| 20260507063703 | 10 | 325 | 8.0 | 12.9 | 0.00 | 0.00 | 0.00 | 90 | 1016.4 |
| 20260507063205 | 9 | 330 | 9.7 | 14.5 | 0.00 | 0.00 | 0.00 | 90 | 1016.4 |
| 20260507062702 | 9 | 319 | 8.0 | 14.5 | 0.00 | 0.00 | 0.00 | 90 | 1016.5 |
| 20260507062237 | 9 | 343 | 4.8 | 12.9 | 0.00 | 0.00 | 0.00 | 91 | 1016.5 |
| 20260507061202 | 8 | 330 | 8.0 | 14.5 | 0.00 | 0.00 | 0.00 | 92 | 1016.4 |
| 20260507060729 | 8 | 358 | 8.0 | 14.5 | 0.00 | 0.00 | 0.00 | 92 | 1016.3 |
| 20260507055701 | 8 | 352 | 6.4 | 14.5 | 0.00 | 0.00 | 0.00 | 93 | 1016.3 |
| 20260507055236 | 8 | 345 | 6.4 | 14.5 | 0.00 | 0.00 | 0.00 | 93 | 1016.2 |
| 20260507054201 | 7 | 320 | 4.8 | 11.3 | 0.00 | 0.00 | 0.00 | 94 | 1016.1 |
| 20260507053703 | 7 | 320 | 4.8 | 8.0 | 0.00 | 0.00 | 0.00 | 94 | 1016.1 |
| 20260507053201 | 7 | 330 | 4.8 | 9.7 | 0.00 | 0.00 | 0.00 | 94 | 1016.1 |
| 20260507052728 | 7 | 6 | 4.8 | 9.7 | 0.00 | 0.00 | 0.00 | 94 | 1016.1 |
| 20260507051700 | 7 | 352 | 4.8 | 9.7 | 0.00 | 0.00 | 0.00 | 94 | 1016.0 |
| 20260507051240 | 7 | 350 | 4.8 | 8.0 | 0.00 | 0.00 | 0.00 | 94 | 1015.9 |